Wilmington, NC

5:29 AM EDT on July 21, 2017 (GMT -0400)
Wilmington International

Weather History for KILM - June, 2013

Change the Weather History Date:

Friday, June 14, 2013

  Actual Average Record
Temperature  
Mean Temperature 74 °F 78 °F  
Max Temperature 84 °F 87 °F 99 °F (1958)
Min Temperature 64 °F 69 °F 53 °F (1904)
Degree Days  
Heating Degree Days 0 0  
Month to date heating degree days 0 0  
Since 1 June heating degree days 0 0  
Since 1 July heating degree days 2446 2409  
Cooling Degree Days 9 13  
Month to date cooling degree days 178 157  
Year to date cooling degree days 404 438  
Since 1 June cooling degree days 178 157  
Growing Degree Days 25 (Base 50)    
Moisture  
Dew Point 62 °F    
Average Humidity 67    
Maximum Humidity 93    
Minimum Humidity 40    
Precipitation  
Precipitation T in 0.16 in 4.15 in (1962)
Month to date precipitation 4.57 2.34  
Year to date precipitation 21.28 21.24  
Sea Level Pressure  
Sea Level Pressure 29.84 in    
Wind  
Wind Speed 9 mph (NNW)    
Max Wind Speed 18 mph    
Max Gust Speed 23 mph    
Visibility 10 miles    
Events Rain , Thunderstorm    
T = Trace of Precipitation, MM = Missing Value Source: NWS Daily Summary

Daily Weather History Graph

Daily Weather History Graph

Search for Another Location

Airport or City:

Trip Planner

Search our weather history database for the weather conditions in past years. The results will help you decide how hot, cold, wet, or windy it might be!

Date:

Astronomy

Jun. 14, 2013 Rise Set
Actual Time 5:59 AM EDT 8:24 PM EDT
Civil Twilight 5:29 AM EDT 8:54 PM EDT
Nautical Twilight 4:53 AM EDT 9:30 PM EDT
Astronomical Twilight 4:14 AM EDT 10:09 PM EDT
Moon 11:19 AM EDT (6/14) No Moon Set
Length of Visible Light 15h 24m
Length of Day
14h 25m
Waxing Crescent, 30% of the Moon is Illuminated
Jun 14
Waxing Crescent
Jun 16
First Quarter
Jun 23
Full
Jun 30
Last Quarter
Jul 8
New

Hourly Weather History & Observations

Time (EDT) Temp. Heat Index Dew Point Humidity Pressure Visibility Wind Dir Wind Speed Gust Speed Precip Events Conditions
12:03 AM 73.4 °F - 68.0 °F 83% 29.74 in 10.0 mi North 11.5 mph - N/A Thunderstorm Overcast
12:47 AM 71.6 °F - 69.8 °F 94% 29.74 in 1.8 mi SW 4.6 mph 19.6 mph 0.22 in Rain , Thunderstorm Heavy Thunderstorms and Rain
12:53 AM 71.1 °F - 70.0 °F 96% 29.73 in 2.0 mi South 5.8 mph - 0.31 in Rain , Thunderstorm Thunderstorms and Rain
1:01 AM 71.6 °F - 69.8 °F 94% 29.72 in 10.0 mi South 4.6 mph - 0.00 in Rain , Thunderstorm Light Thunderstorms and Rain
1:40 AM 71.6 °F - 69.8 °F 94% 29.73 in 10.0 mi West 13.8 mph - 0.00 in   Overcast
1:53 AM 73.0 °F - 69.1 °F 87% 29.75 in 10.0 mi SW 15.0 mph - 0.00 in   Overcast
2:01 AM 71.6 °F - 69.8 °F 94% 29.73 in 10.0 mi West 10.4 mph 20.7 mph N/A   Mostly Cloudy
2:53 AM 72.0 °F - 69.1 °F 91% 29.72 in 10.0 mi WNW 11.5 mph - N/A   Clear
3:53 AM 71.1 °F - 68.0 °F 90% 29.73 in 10.0 mi NW 9.2 mph - N/A   Partly Cloudy
4:53 AM 71.1 °F - 68.0 °F 90% 29.75 in 10.0 mi NNW 6.9 mph - N/A   Mostly Cloudy
5:53 AM 70.0 °F - 66.0 °F 87% 29.76 in 10.0 mi NW 6.9 mph - N/A   Clear
6:53 AM 69.1 °F - 64.0 °F 84% 29.78 in 10.0 mi NW 6.9 mph - N/A   Clear
7:53 AM 71.1 °F - 62.1 °F 73% 29.80 in 10.0 mi NW 11.5 mph - N/A   Clear
8:53 AM 73.0 °F - 60.1 °F 64% 29.81 in 10.0 mi NNW 12.7 mph 19.6 mph N/A   Clear
9:53 AM 75.0 °F - 59.0 °F 57% 29.83 in 10.0 mi NNW 13.8 mph - N/A   Clear
10:53 AM 77.0 °F - 59.0 °F 54% 29.83 in 10.0 mi NNW 16.1 mph 21.9 mph N/A   Clear
11:53 AM 80.1 °F 80.7 °F 59.0 °F 48% 29.85 in 10.0 mi NNW 13.8 mph 20.7 mph N/A   Clear
12:53 PM 81.0 °F 81.1 °F 57.9 °F 45% 29.85 in 10.0 mi North 13.8 mph 23.0 mph N/A   Clear
1:53 PM 82.0 °F 82.0 °F 57.9 °F 44% 29.86 in 10.0 mi NNW 10.4 mph - N/A   Clear
2:53 PM 82.0 °F 82.0 °F 57.9 °F 44% 29.87 in 10.0 mi North 10.4 mph 18.4 mph N/A   Mostly Cloudy
3:53 PM 84.0 °F 83.3 °F 57.0 °F 40% 29.88 in 10.0 mi North 8.1 mph 17.3 mph N/A   Partly Cloudy
4:53 PM 81.0 °F 81.1 °F 57.9 °F 45% 29.90 in 10.0 mi North 10.4 mph 18.4 mph N/A   Scattered Clouds
5:53 PM 79.0 °F - 55.9 °F 45% 29.90 in 10.0 mi North 11.5 mph - N/A   Scattered Clouds
6:53 PM 79.0 °F - 55.9 °F 45% 29.92 in 10.0 mi North 9.2 mph - N/A   Clear
7:53 PM 75.0 °F - 57.9 °F 55% 29.94 in 10.0 mi North 5.8 mph - N/A   Clear
8:53 PM 71.1 °F - 59.0 °F 66% 29.95 in 10.0 mi Calm Calm - N/A   Clear
9:53 PM 69.1 °F - 60.1 °F 73% 29.98 in 10.0 mi Calm Calm - N/A   Clear
10:53 PM 66.9 °F - 60.1 °F 79% 30.00 in 10.0 mi NE 3.5 mph - N/A   Clear
11:53 PM 66.9 °F - 57.9 °F 73% 30.02 in 10.0 mi Calm Calm - N/A   Clear